[Date Prev][Date Next][Thread Prev][Thread Next] - [Date Index][Thread Index][Author Index]
2 Line ISS Keps 3-9
- Subject: [sarex] 2 Line ISS Keps 3-9
- From: "Dave Larsen PhD" <doc@xxxxxxxxxxx>
- Date: Wed, 8 Mar 2006 18:14:53 -0800
ISS
1 25544U 98067A 06067.82532384 .00013742 00000-0 97867-4 0 4896
2 25544 051.6446 343.8007 0008423 343.7182 137.1983 15.74147843417343
----
Via the sarex mailing list at AMSAT.ORG courtesy of AMSAT-NA.
To unsubscribe, send "unsubscribe sarex" to Majordomo@amsat.org
AMSAT Home